St-Nazaire, France

1:32 PM CEST on June 21, 2018 (GMT +0200)
Montoir

Weather History for LFRZ - August, 2013

Change the Weather History Date:

Thursday, August 22, 2013

  Actual Average Record
Temperature  
Mean Temperature 73 °F -  
Max Temperature 87 °F 70 °F 89 °F (2017)
Min Temperature 59 °F 53 °F 47 °F (2014)
Cooling Degree Days 8    
Growing Degree Days 23 (Base 50)    
Moisture  
Dew Point 51 °F    
Average Humidity 50    
Maximum Humidity 77    
Minimum Humidity 25    
Precipitation  
Precipitation 0.00 in - - ()
Sea Level Pressure  
Sea Level Pressure 29.98 in    
Wind  
Wind Speed 7 mph ()    
Max Wind Speed 16 mph    
Max Gust Speed -    
Visibility 6.2 miles    
Events      
Averages and records for this station are not official NWS values.
T = Trace of Precipitation, MM = Missing Value Source: Averaged Metar Reports

Daily Weather History Graph

Daily Weather History Graph

Search for Another Location

Airport or City:

Astronomy

Aug. 22, 2013 Rise Set
Actual Time 7:14 AM CEST 9:07 PM CEST
Civil Twilight 6:41 AM CEST 9:40 PM CEST
Nautical Twilight 6:01 AM CEST 10:20 PM CEST
Astronomical Twilight 5:16 AM CEST 11:04 PM CEST
Moon 9:30 PM CEST (8/22) 8:57 AM CEST (8/22)
Length of Visible Light 14h 58m
Length of Day
13h 53m
Full, 98% of the Moon is Illuminated
Aug 22
Full
Aug 28
Last Quarter
Sep 5
New
Sep 12
First Quarter
Sep 19
Full

Hourly Weather History & Observations

Time (CEST) Temp. Dew Point Humidity Pressure Visibility Wind Dir Wind Speed Gust Speed Precip Events Conditions
12:00 AM 68.0 °F 50.0 °F 52% 30.09 in 6.2 mi NNE 6.9 mph - N/A   Unknown
12:30 AM 66.2 °F 50.0 °F 56% 30.06 in 6.2 mi NNE 8.1 mph - N/A   Unknown
1:00 AM 66.2 °F 51.8 °F 60% 30.06 in 6.2 mi NNE 8.1 mph - N/A   Unknown
1:30 AM 64.4 °F 53.6 °F 68% 30.06 in 6.2 mi NNE 8.1 mph - N/A   Unknown
2:00 AM 64.4 °F 53.6 °F 68% 30.04 in 6.2 mi NE 6.9 mph - N/A   Unknown
2:30 AM 64.4 °F 53.6 °F 68% 30.04 in 6.2 mi NNE 6.9 mph - N/A   Unknown
3:00 AM 62.6 °F 53.6 °F 72% 30.04 in 6.2 mi NNE 5.8 mph - N/A   Unknown
3:30 AM 62.6 °F 53.6 °F 72% 30.04 in 6.2 mi North 4.6 mph - N/A   Unknown
4:00 AM 60.8 °F 53.6 °F 77% 30.04 in 6.2 mi North 4.6 mph - N/A   Unknown
4:30 AM 60.8 °F 51.8 °F 72% 30.04 in 6.2 mi North 5.8 mph - N/A   Unknown
5:00 AM 60.8 °F 51.8 °F 72% 30.04 in 6.2 mi NNE 5.8 mph - N/A   Unknown
5:30 AM 60.8 °F 51.8 °F 72% 30.01 in 6.2 mi NE 6.9 mph - N/A   Unknown
6:00 AM 60.8 °F 50.0 °F 68% 30.01 in 6.2 mi NE 6.9 mph - N/A   Unknown
6:30 AM 60.8 °F 50.0 °F 68% 30.01 in 6.2 mi NE 6.9 mph - N/A   Unknown
7:00 AM 59.0 °F 50.0 °F 72% 30.01 in 6.2 mi NNE 5.8 mph - N/A   Unknown
7:30 AM 59.0 °F 50.0 °F 72% 30.01 in 6.2 mi NNE 4.6 mph - N/A   Unknown
8:00 AM 59.0 °F 50.0 °F 72% 30.01 in 6.2 mi NNE 4.6 mph - N/A   Unknown
8:30 AM 59.0 °F 50.0 °F 72% 30.01 in 6.2 mi NNE 4.6 mph - N/A   Unknown
9:00 AM 64.4 °F 51.8 °F 64% 30.01 in 6.2 mi ENE 6.9 mph - N/A   Unknown
9:30 AM 66.2 °F 50.0 °F 56% 30.01 in 6.2 mi ENE 9.2 mph - N/A   Unknown
10:00 AM 69.8 °F 51.8 °F 53% 30.01 in 6.2 mi East 8.1 mph - N/A   Unknown
10:30 AM 71.6 °F 51.8 °F 50% 29.98 in 6.2 mi ENE 8.1 mph - N/A   Unknown
11:00 AM 73.4 °F 50.0 °F 44% 29.98 in 6.2 mi NE 9.2 mph - N/A   Unknown
11:30 AM 75.2 °F 51.8 °F 44% 29.98 in 6.2 mi NE 9.2 mph - N/A   Unknown
12:00 PM 77.0 °F 51.8 °F 41% 29.98 in 6.2 mi NE 8.1 mph - N/A   Unknown
12:30 PM 80.6 °F 50.0 °F 34% 29.98 in 6.2 mi ENE 10.4 mph - N/A   Unknown
1:00 PM 82.4 °F 50.0 °F 32% 29.98 in 6.2 mi East 12.7 mph - N/A   Unknown
1:30 PM 82.4 °F 50.0 °F 32% 29.95 in 6.2 mi East 15.0 mph - N/A   Unknown
2:00 PM 84.2 °F 48.2 °F 29% 29.95 in 6.2 mi ESE 13.8 mph - N/A   Unknown
2:30 PM 84.2 °F 46.4 °F 27% 29.95 in 6.2 mi ESE 16.1 mph - N/A   Unknown
3:00 PM 84.2 °F 48.2 °F 29% 29.95 in 6.2 mi SE 12.7 mph - N/A   Unknown
3:30 PM 86.0 °F 46.4 °F 25% 29.95 in 6.2 mi ESE 11.5 mph - N/A   Unknown
4:00 PM 86.0 °F 46.4 °F 25% 29.95 in 6.2 mi ESE 9.2 mph - N/A   Unknown
4:30 PM 86.0 °F 46.4 °F 25% 29.92 in 6.2 mi East 9.2 mph - N/A   Unknown
5:00 PM 87.8 °F 48.2 °F 25% 29.92 in 6.2 mi ESE 9.2 mph - N/A   Unknown
5:30 PM 87.8 °F 50.0 °F 27% 29.92 in 6.2 mi East 9.2 mph - N/A   Unknown
6:00 PM 87.8 °F 48.2 °F 25% 29.92 in 6.2 mi East 9.2 mph - N/A   Unknown
6:30 PM 86.0 °F 48.2 °F 27% 29.92 in 6.2 mi ENE 8.1 mph - N/A   Unknown
7:00 PM 86.0 °F 48.2 °F 27% 29.92 in 6.2 mi ENE 9.2 mph - N/A   Unknown
7:30 PM 84.2 °F 50.0 °F 30% 29.89 in 6.2 mi East 9.2 mph - N/A   Unknown
8:00 PM 82.4 °F 50.0 °F 32% 29.89 in 6.2 mi ENE 6.9 mph - N/A   Unknown
8:30 PM 80.6 °F 50.0 °F 34% 29.92 in 6.2 mi ENE 4.6 mph - N/A   Unknown
9:00 PM 75.2 °F 55.4 °F 50% 29.92 in 6.2 mi SW 3.5 mph - N/A   Unknown
9:30 PM 71.6 °F 53.6 °F 53% 29.92 in 6.2 mi SW 3.5 mph - N/A   Unknown
10:00 PM 71.6 °F 55.4 °F 57% 29.92 in 6.2 mi SW 3.5 mph - N/A   Unknown
10:30 PM 69.8 °F 55.4 °F 60% 29.92 in 6.2 mi SSW 1.2 mph - N/A   Unknown
11:00 PM 69.8 °F 55.4 °F 60% 29.95 in 6.2 mi Calm Calm - N/A   Unknown
11:30 PM 69.8 °F 53.6 °F 56% 29.95 in 6.2 mi NNE 3.5 mph - N/A   Unknown